Time,TemperatureF,DewpointF,PressureIn,WindDirection,WindDirectionDegrees,WindSpeedMPH,WindSpeedGustMPH,Humidity,HourlyPrecipIn,Conditions,Clouds,dailyrainin,SoftwareType,DateUTC
2013-01-30 10:25:00,-1.4,-8.2,29.92,North,355,0.0,44.0,72,0.00,,,0.00,Wunderground v.1.13,2013-01-30 19:25:00,
2013-01-30 10:35:00,-1.4,-8.5,29.91,North,355,0.0,44.0,71,0.00,,,0.00,Wunderground v.1.13,2013-01-30 19:35:00,
2013-01-30 10:40:00,-1.2,-8.0,29.91,North,355,0.0,44.0,72,0.00,,,0.00,Wunderground v.1.13,2013-01-30 19:40:00,
2013-01-30 10:50:00,-1.0,-7.9,29.91,North,355,0.0,44.0,72,0.00,,,0.00,Wunderground v.1.13,2013-01-30 19:50:00,
2013-01-30 10:55:00,-1.0,-7.9,29.91,North,355,0.0,44.0,72,0.00,,,0.00,Wunderground v.1.13,2013-01-30 19:55:00,
2013-01-30 11:00:00,-1.0,-7.9,29.91,North,355,0.0,44.0,72,0.00,,,0.00,Wunderground v.1.13,2013-01-30 20:00:00,
2013-01-30 11:10:00,-1.0,-7.9,29.91,North,355,0.0,44.0,72,0.00,,,0.00,Wunderground v.1.13,2013-01-30 20:10:00,
2013-01-30 11:15:00,-1.0,-7.9,29.91,North,355,0.0,44.0,72,0.00,,,0.00,Wunderground v.1.13,2013-01-30 20:15:00,
2013-01-30 11:20:00,-1.0,-7.9,29.91,North,355,0.0,44.0,72,0.00,,,0.00,Wunderground v.1.13,2013-01-30 20:20:00,
2013-01-30 11:30:00,-1.0,-8.4,29.91,North,355,0.0,44.0,70,0.00,,,0.00,Wunderground v.1.13,2013-01-30 20:30:00,
2013-01-30 11:35:00,-0.8,-8.5,29.91,North,355,0.0,44.0,69,0.00,,,0.00,Wunderground v.1.13,2013-01-30 20:35:00,
2013-01-30 11:40:00,-0.6,-8.3,29.91,North,355,0.0,44.0,69,0.00,,,0.00,Wunderground v.1.13,2013-01-30 20:40:00,
2013-01-30 11:50:00,0.0,-8.1,29.91,North,355,0.0,44.0,68,0.00,,,0.00,Wunderground v.1.13,2013-01-30 20:50:00,
2013-01-30 11:55:00,0.1,-8.3,29.91,North,355,0.0,44.0,67,0.00,,,0.00,Wunderground v.1.13,2013-01-30 20:55:00,
2013-01-30 12:00:00,0.3,-8.4,29.91,North,355,0.0,44.0,66,0.00,,,0.00,Wunderground v.1.13,2013-01-30 21:00:00,
2013-01-30 12:10:00,0.7,-8.0,29.90,North,355,0.0,44.0,66,0.00,,,0.00,Wunderground v.1.13,2013-01-30 21:10:00,
2013-01-30 12:15:00,0.7,-8.0,29.90,North,355,0.0,44.0,66,0.00,,,0.00,Wunderground v.1.13,2013-01-30 21:15:00,
2013-01-30 12:20:00,0.9,-7.8,29.88,North,355,0.0,44.0,66,0.00,,,0.00,Wunderground v.1.13,2013-01-30 21:20:00,
2013-01-30 12:25:00,0.9,-7.8,29.88,North,355,0.0,44.0,66,0.00,,,0.00,Wunderground v.1.13,2013-01-30 21:25:00,
2013-01-30 12:35:00,1.1,-7.3,29.88,North,355,0.0,44.0,67,0.00,,,0.00,Wunderground v.1.13,2013-01-30 21:35:00,
2013-01-30 12:40:00,1.1,-7.0,29.88,NNW,343,0.0,44.0,68,0.00,,,0.00,Wunderground v.1.13,2013-01-30 21:40:00,
2013-01-30 12:45:00,1.1,-7.0,29.88,NNW,343,0.0,44.0,68,0.00,,,0.00,Wunderground v.1.13,2013-01-30 21:45:00,
2013-01-30 12:50:00,1.1,-6.7,29.88,NNW,343,0.0,44.0,69,0.00,,,0.00,Wunderground v.1.13,2013-01-30 21:50:00,
2013-01-30 13:00:00,1.3,-6.2,29.88,NNW,343,0.0,44.0,70,0.00,,,0.00,Wunderground v.1.13,2013-01-30 22:00:00,
2013-01-30 13:10:00,1.3,-5.9,29.87,NNW,343,0.0,44.0,71,0.00,,,0.00,Wunderground v.1.13,2013-01-30 22:10:00,
2013-01-30 13:15:00,1.1,-6.1,29.87,NNW,343,0.0,44.0,71,0.00,,,0.00,Wunderground v.1.13,2013-01-30 22:15:00,
2013-01-30 13:25:00,1.3,-5.6,29.86,NNW,343,0.0,44.0,72,0.00,,,0.00,Wunderground v.1.13,2013-01-30 22:25:00,
2013-01-30 13:30:00,1.3,-5.6,29.86,NNW,343,0.0,44.0,72,0.00,,,0.00,Wunderground v.1.13,2013-01-30 22:30:00,
2013-01-30 13:40:00,1.5,-5.7,29.85,NNW,343,0.0,44.0,71,0.00,,,0.00,Wunderground v.1.13,2013-01-30 22:40:00,
2013-01-30 13:45:00,1.5,-6.0,29.85,NNW,343,0.0,44.0,70,0.00,,,0.00,Wunderground v.1.13,2013-01-30 22:45:00,
2013-01-30 13:50:00,1.7,-5.8,29.84,NNW,343,0.0,44.0,70,0.00,,,0.00,Wunderground v.1.13,2013-01-30 22:50:00,
2013-01-30 13:55:00,1.8,-5.7,29.84,NNW,343,0.0,44.0,70,0.00,,,0.00,Wunderground v.1.13,2013-01-30 22:55:00,
2013-01-30 14:10:00,2.2,-5.4,29.85,NNW,343,0.0,44.0,70,0.00,,,0.00,Wunderground v.1.13,2013-01-30 23:10:00,
2013-01-30 14:15:00,2.2,-5.4,29.85,NNW,343,0.0,44.0,70,0.00,,,0.00,Wunderground v.1.13,2013-01-30 23:15:00,
2013-01-30 14:20:00,2.4,-5.2,29.84,NNW,343,0.0,44.0,70,0.00,,,0.00,Wunderground v.1.13,2013-01-30 23:20:00,
2013-01-30 14:30:00,2.8,-5.1,29.84,NNW,343,0.0,44.0,69,0.00,,,0.00,Wunderground v.1.13,2013-01-30 23:30:00,
2013-01-30 14:35:00,2.8,-5.4,29.83,NNW,343,0.0,44.0,68,0.00,,,0.00,Wunderground v.1.13,2013-01-30 23:35:00,
2013-01-30 14:40:00,3.0,-5.5,29.83,NNW,343,0.0,44.0,67,0.00,,,0.00,Wunderground v.1.13,2013-01-30 23:40:00,
2013-01-30 14:45:00,3.2,-5.3,29.83,NNW,343,0.0,44.0,67,0.00,,,0.00,Wunderground v.1.13,2013-01-30 23:45:00,
2013-01-30 14:55:00,3.5,-5.0,29.83,NNW,343,0.0,44.0,67,0.00,,,0.00,Wunderground v.1.13,2013-01-30 23:55:00,
2013-01-30 15:00:00,3.7,-5.1,29.83,NNW,343,0.0,44.0,66,0.00,,,0.00,Wunderground v.1.13,2013-01-31 00:00:00,
2013-01-30 15:10:00,3.9,-5.3,29.83,NNW,343,0.0,44.0,65,0.00,,,0.00,Wunderground v.1.13,2013-01-31 00:10:00,
2013-01-30 15:20:00,4.3,-4.9,29.83,NNW,343,0.0,44.0,65,0.00,,,0.00,Wunderground v.1.13,2013-01-31 00:20:00,
2013-01-30 15:25:00,4.5,-4.7,29.83,NNW,343,0.0,44.0,65,0.00,,,0.00,Wunderground v.1.13,2013-01-31 00:25:00,
2013-01-30 15:30:00,4.5,-5.0,29.83,NNW,343,0.0,44.0,64,0.00,,,0.00,Wunderground v.1.13,2013-01-31 00:30:00,
2013-01-30 15:40:00,4.8,-4.7,29.81,NNW,343,0.0,44.0,64,0.00,,,0.00,Wunderground v.1.13,2013-01-31 00:40:00,
2013-01-30 15:45:00,4.8,-4.4,29.81,NNW,343,0.0,44.0,65,0.00,,,0.00,Wunderground v.1.13,2013-01-31 00:45:00,
2013-01-30 15:50:00,4.8,-3.5,29.81,NW,314,0.0,44.0,68,0.00,,,0.00,Wunderground v.1.13,2013-01-31 00:50:00,
2013-01-30 15:55:00,4.7,-3.2,29.81,NNW,341,0.0,44.0,69,0.00,,,0.00,Wunderground v.1.13,2013-01-31 00:55:00,
2013-01-30 16:00:00,4.5,-3.4,29.81,NE,47,0.0,44.0,69,0.00,,,0.00,Wunderground v.1.13,2013-01-31 01:00:00,
2013-01-30 16:10:00,4.7,-3.9,29.80,NE,37,0.0,44.0,67,0.00,,,0.00,Wunderground v.1.13,2013-01-31 01:10:00,
2013-01-30 16:15:00,4.8,-3.8,29.80,NE,37,0.0,44.0,67,0.00,,,0.00,Wunderground v.1.13,2013-01-31 01:15:00,
2013-01-30 16:20:00,4.8,-3.8,29.80,NE,37,0.0,44.0,67,0.00,,,0.00,Wunderground v.1.13,2013-01-31 01:20:00,
2013-01-30 16:25:00,5.0,-3.6,29.80,NE,37,0.0,44.0,67,0.00,,,0.00,Wunderground v.1.13,2013-01-31 01:25:00,
2013-01-30 16:35:00,5.2,-2.5,29.79,NE,37,0.0,44.0,70,0.00,,,0.00,Wunderground v.1.13,2013-01-31 01:35:00,
2013-01-30 16:40:00,5.0,-2.4,29.79,NE,37,0.0,44.0,71,0.00,,,0.00,Wunderground v.1.13,2013-01-31 01:40:00,
2013-01-30 16:45:00,5.0,-2.1,29.79,NE,37,0.0,44.0,72,0.00,,,0.00,Wunderground v.1.13,2013-01-31 01:45:00,
2013-01-30 16:55:00,4.8,-2.0,29.78,NE,37,0.0,44.0,73,0.00,,,0.00,Wunderground v.1.13,2013-01-31 01:55:00,
2013-01-30 17:00:00,4.8,-2.0,29.78,NE,37,0.0,44.0,73,0.00,,,0.00,Wunderground v.1.13,2013-01-31 02:00:00,
2013-01-30 17:10:00,5.0,-1.8,29.78,NE,37,0.0,44.0,73,0.00,,,0.00,Wunderground v.1.13,2013-01-31 02:10:00,
2013-01-30 17:15:00,5.0,-1.8,29.78,NE,37,0.0,44.0,73,0.00,,,0.00,Wunderground v.1.13,2013-01-31 02:15:00,
2013-01-30 17:20:00,5.0,-1.5,29.77,NNE,28,0.0,44.0,74,0.00,,,0.00,Wunderground v.1.13,2013-01-31 02:20:00,
2013-01-30 17:30:00,5.2,-1.6,29.77,NNE,28,0.0,44.0,73,0.00,,,0.00,Wunderground v.1.13,2013-01-31 02:30:00,
2013-01-30 17:35:00,5.4,-1.7,29.77,NNE,28,0.0,44.0,72,0.00,,,0.00,Wunderground v.1.13,2013-01-31 02:35:00,
2013-01-30 17:40:00,5.6,-1.5,29.77,NNE,28,0.0,44.0,72,0.00,,,0.00,Wunderground v.1.13,2013-01-31 02:40:00,
2013-01-30 17:45:00,5.6,-1.5,29.77,NNE,28,0.0,44.0,72,0.00,,,0.00,Wunderground v.1.13,2013-01-31 02:45:00,
2013-01-30 17:55:00,6.0,-1.4,29.76,NNE,28,0.0,44.0,71,0.00,,,0.00,Wunderground v.1.13,2013-01-31 02:55:00,
2013-01-30 18:00:00,6.1,-1.3,29.76,NNE,28,0.0,44.0,71,0.00,,,0.00,Wunderground v.1.13,2013-01-31 03:00:00,
2013-01-30 18:10:00,6.5,-1.8,29.76,NNE,28,0.0,44.0,68,0.00,,,0.00,Wunderground v.1.13,2013-01-31 03:10:00,
2013-01-30 18:15:00,6.7,-1.3,29.76,SSE,163,0.0,44.0,69,0.00,,,0.00,Wunderground v.1.13,2013-01-31 03:15:00,
2013-01-30 18:20:00,6.9,-0.8,29.76,SSE,167,0.0,44.0,70,0.00,,,0.00,Wunderground v.1.13,2013-01-31 03:20:00,
2013-01-30 18:25:00,7.0,-0.7,29.76,SSE,167,0.0,44.0,70,0.00,,,0.00,Wunderground v.1.13,2013-01-31 03:25:00,
2013-01-30 18:35:00,7.0,-0.4,29.76,SSE,167,0.0,44.0,71,0.00,,,0.00,Wunderground v.1.13,2013-01-31 03:35:00,
2013-01-30 18:40:00,6.9,0.1,29.76,SSE,167,0.0,44.0,73,0.00,,,0.00,Wunderground v.1.13,2013-01-31 03:40:00,
2013-01-30 18:45:00,6.9,-0.5,29.76,SSE,167,0.0,44.0,71,0.00,,,0.00,Wunderground v.1.13,2013-01-31 03:45:00,
2013-01-30 18:55:00,7.0,-0.7,29.76,SSE,167,0.0,44.0,70,0.00,,,0.00,Wunderground v.1.13,2013-01-31 03:55:00,
2013-01-30 19:00:00,7.2,0.1,29.76,SSE,167,0.0,44.0,72,0.00,,,0.00,Wunderground v.1.13,2013-01-31 04:00:00,
2013-01-30 19:10:00,7.2,0.7,29.76,SSE,167,0.0,44.0,74,0.00,,,0.00,Wunderground v.1.13,2013-01-31 04:10:00,
2013-01-30 19:20:00,7.0,0.5,29.75,SSE,167,0.0,44.0,74,0.00,,,0.00,Wunderground v.1.13,2013-01-31 04:20:00,
2013-01-30 19:25:00,7.0,0.7,29.75,SSE,167,0.0,44.0,75,0.00,,,0.00,Wunderground v.1.13,2013-01-31 04:25:00,
2013-01-30 19:30:00,6.9,0.6,29.75,SSE,167,0.0,44.0,75,0.00,,,0.00,Wunderground v.1.13,2013-01-31 04:30:00,
2013-01-30 19:40:00,7.0,0.5,29.75,SSE,167,0.0,44.0,74,0.00,,,0.00,Wunderground v.1.13,2013-01-31 04:40:00,
2013-01-30 19:45:00,7.2,0.4,29.75,SSE,167,0.0,44.0,73,0.00,,,0.00,Wunderground v.1.13,2013-01-31 04:45:00,
2013-01-30 19:50:00,7.4,0.8,29.75,SSE,167,0.0,44.0,74,0.00,,,0.00,Wunderground v.1.13,2013-01-31 04:50:00,
2013-01-30 20:00:00,7.4,0.3,29.75,SSE,167,0.0,44.0,72,0.00,,,0.00,Wunderground v.1.13,2013-01-31 05:00:00,
2013-01-30 20:10:00,7.7,-0.7,29.75,SSE,167,0.0,44.0,68,0.00,,,0.00,Wunderground v.1.13,2013-01-31 05:10:00,
2013-01-30 20:15:00,8.1,0.0,29.75,SSE,167,0.0,44.0,69,0.00,,,0.00,Wunderground v.1.13,2013-01-31 05:15:00,
2013-01-30 20:20:00,8.4,-0.3,29.75,SSE,167,0.0,44.0,67,0.00,,,0.00,Wunderground v.1.13,2013-01-31 05:20:00,
2013-01-30 20:25:00,8.8,-0.6,29.75,SSE,167,0.0,44.0,65,0.00,,,0.00,Wunderground v.1.13,2013-01-31 05:25:00,
2013-01-30 20:35:00,9.0,0.6,29.75,SSE,167,0.0,44.0,68,0.00,,,0.00,Wunderground v.1.13,2013-01-31 05:35:00,
2013-01-30 20:40:00,9.0,0.3,29.75,SSE,167,0.0,44.0,67,0.00,,,0.00,Wunderground v.1.13,2013-01-31 05:40:00,
2013-01-30 20:50:00,9.5,0.4,29.75,SSE,167,0.0,44.0,66,0.00,,,0.00,Wunderground v.1.13,2013-01-31 05:50:00,
2013-01-30 20:55:00,9.5,0.4,29.75,SSE,167,0.0,44.0,66,0.00,,,0.00,Wunderground v.1.13,2013-01-31 05:55:00,
2013-01-30 21:00:00,9.3,1.5,29.75,SSE,167,0.0,44.0,70,0.00,,,0.00,Wunderground v.1.13,2013-01-31 06:00:00,
2013-01-30 21:10:00,8.4,1.8,29.75,SSE,167,0.0,44.0,74,0.00,,,0.00,Wunderground v.1.13,2013-01-31 06:10:00,
2013-01-30 21:15:00,8.1,1.8,29.75,SSW,199,0.0,44.0,75,0.00,,,0.00,Wunderground v.1.13,2013-01-31 06:15:00,
2013-01-30 21:20:00,7.9,1.6,29.75,SSW,199,0.0,44.0,75,0.00,,,0.00,Wunderground v.1.13,2013-01-31 06:20:00,
2013-01-30 21:30:00,7.7,1.7,29.75,SSW,199,0.0,44.0,76,0.00,,,0.00,Wunderground v.1.13,2013-01-31 06:30:00,
2013-01-30 21:35:00,7.6,1.6,29.75,SSW,199,0.0,44.0,76,0.00,,,0.00,Wunderground v.1.13,2013-01-31 06:35:00,
2013-01-30 21:40:00,7.6,1.6,29.75,SSW,202,0.0,44.0,76,0.00,,,0.00,Wunderground v.1.13,2013-01-31 06:40:00,
2013-01-30 21:50:00,7.6,1.0,29.75,North,5,1.0,1.0,74,0.00,,,0.00,Wunderground v.1.13,2013-01-31 06:50:00,
2013-01-30 21:55:00,7.7,1.1,29.75,North,5,0.0,44.0,74,0.00,,,0.00,Wunderground v.1.13,2013-01-31 06:55:00,
2013-01-30 22:10:00,8.1,1.2,29.76,SSW,209,0.0,44.0,73,0.00,,,0.00,Wunderground v.1.13,2013-01-31 07:10:00,
2013-01-30 22:15:00,8.3,1.1,29.76,SSW,209,0.0,44.0,72,0.00,,,0.00,Wunderground v.1.13,2013-01-31 07:15:00,
2013-01-30 22:20:00,8.4,1.2,29.76,SSW,209,0.0,44.0,72,0.00,,,0.00,Wunderground v.1.13,2013-01-31 07:20:00,
2013-01-30 22:25:00,8.4,1.2,29.76,SSW,209,0.0,44.0,72,0.00,,,0.00,Wunderground v.1.13,2013-01-31 07:25:00,
2013-01-30 22:35:00,8.1,1.2,29.77,SSW,209,0.0,44.0,73,0.00,,,0.00,Wunderground v.1.13,2013-01-31 07:35:00,
2013-01-30 22:40:00,8.1,0.9,29.77,SSW,209,0.0,44.0,72,0.00,,,0.00,Wunderground v.1.13,2013-01-31 07:40:00,
2013-01-30 22:50:00,7.7,0.8,29.76,North,5,0.0,44.0,73,0.00,,,0.00,Wunderground v.1.13,2013-01-31 07:50:00,
2013-01-30 22:55:00,7.6,1.0,29.76,West,273,1.0,1.0,74,0.00,,,0.00,Wunderground v.1.13,2013-01-31 07:55:00,